Flag for U.S.A. Weather past 2 weeks in Tempe, Arizona, U.S.A.

Now
90 °F

Partly sunny.


Feels Like: 87 °F
Forecast: 82 / 108 °F
Wind: 5 mph from North

Location: Phoenix Sky Harbor International Airport

Current Time: Jul 22, 2014 at 8:11:02 AM

Latest Report: Jul 22, 2014 at 6:51 AM


Visibility: 10 mi

Pressure: 29.86 "Hg

Humidity: 25%

Dew point: 50 °F

Location of TempeLocation

Historic Weather in Tempe — Graph

°F

Tempe temperature yesterday

Maximum temperature yesterday: 106 °F (at 4:51 PM)
Minimum temperature yesterday: 85 °F (at 4:51 AM)
Average temperature yesterday: 97 °F

Past Weeks' High & Low Weather Summary

 TemperatureHumidityPressure
High109 °F (Jul 12, 3:51 PM)74% (Jul 13, 10:51 PM)29.95 "Hg (Jul 13, 10:51 PM)
Low80 °F (Jul 13, 10:51 PM)8% (Jul 17, 4:51 PM)29.65 "Hg (Jul 7, 5:51 PM)
Average95 °F28%29.80 "Hg
* Reported Jul 7 6:51 AM — Jul 22 6:51 AM, Tempe, Weather by CustomWeather, © 2014

Note: Actual official high and low records may vary slightly from our data, if they occured in-between our weather recording intervals... More about our weather records

Advertising

Tempe weather history for previous 24 hours

 ConditionsComfort  
Time TempWeatherWind HumidityBarometerVisibility
6:51 AM
Jul 22
90 °FPartly sunny.5 mph25%29.86 "Hg10 mi
5:51 AM89 °FBroken clouds.3 mph27%29.85 "Hg10 mi
4:51 AM91 °FPassing clouds.9 mph25%29.83 "Hg10 mi
3:51 AM91 °FClear.7 mph25%29.82 "Hg10 mi
2:51 AM90 °FClear.3 mph26%29.82 "Hg10 mi
1:51 AM91 °FClear.3 mph26%29.81 "Hg10 mi
12:51 AM92 °FClear.3 mph24%29.81 "Hg10 mi
11:51 PM
Jul 21
94 °FClear.No wind21%29.82 "Hg10 mi
10:51 PM99 °FClear.7 mph17%29.82 "Hg10 mi
9:51 PM97 °FClear.6 mph18%29.82 "Hg10 mi
8:51 PM100 °FClear.7 mph15%29.81 "Hg10 mi
7:51 PM103 °FClear.9 mph13%29.79 "Hg10 mi
6:51 PM104 °FPassing clouds.7 mph12%29.79 "Hg10 mi
5:51 PM105 °FPassing clouds.13 mph11%29.79 "Hg10 mi
4:51 PM106 °FPassing clouds.14 mph10%29.80 "Hg10 mi
3:51 PM105 °FPassing clouds.6 mph10%29.82 "Hg10 mi
2:51 PM105 °FPassing clouds.N/A10%29.84 "Hg10 mi
1:51 PM103 °FPassing clouds.8 mph10%29.86 "Hg10 mi
12:51 PM104 °FPassing clouds.7 mph9%29.88 "Hg10 mi
11:51 AM100 °FPassing clouds.No wind11%29.90 "Hg10 mi
10:51 AM98 °FPassing clouds.7 mph12%29.92 "Hg10 mi
9:51 AM97 °FPassing clouds.6 mph13%29.93 "Hg10 mi
8:51 AM93 °FScattered clouds.No wind16%29.93 "Hg10 mi
Weather by CustomWeather, © 2014

See weather overviewHow to use our weather pages